1491202800.51,35050,15.44,74154.3,7.81,-14.65,-21.33,0,*75
1491202801.75,35051,15.44,74156.0,7.83,-14.93,-21.73,0,*7B
1491202803.0,35052,15.44,74156.0,7.83,-14.79,-21.47,0,*7B
1491202804.22,35053,15.44,74154.0,7.85,-14.89,-21.57,0,*72
1491202805.46,35054,15.44,74152.8,7.85,-15.25,-22.17,0,*75
1491202806.68,35055,15.44,74154.8,7.85,-15.21,-21.93,0,*7F
1491202807.94,35056,15.44,74152.5,7.85,-15.35,-22.31,0,*72
1491202809.19,35057,15.44,74154.8,7.85,-16.23,-23.33,0,*74
1491202810.42,35058,15.44,74152.5,7.85,-16.97,-24.11,0,*73
1491202811.69,35059,15.44,74152.3,7.83,-16.17,-23.33,0,*7B
1491202812.92,35060,15.44,74154.8,7.81,-16.69,-23.89,0,*7B
1491202814.16,35061,15.44,74156.0,7.79,-16.65,-23.95,0,*7C
1491202815.4,35062,15.44,74154.3,7.77,-16.55,-23.75,0,*7C
1491202816.65,35063,15.44,74154.5,7.77,-16.37,-23.49,0,*76
1491202817.92,35064,15.44,74154.0,7.77,-15.81,-23.03,0,*71
1491202819.2,35065,15.44,74152.0,7.77,-15.01,-21.87,0,*76
1491202820.45,35066,15.44,74154.0,7.77,-14.61,-21.53,0,*7B
1491202821.69,35067,15.44,74154.8,7.79,-14.19,-21.23,0,*7C
1491202822.97,35068,15.44,74154.5,7.77,-14.01,-20.99,0,*74
1491202824.2,35069,15.44,74154.0,7.79,-13.87,-20.89,0,*73
1491202825.44,35070,15.44,74150.3,7.81,-13.79,-20.63,0,*79
1491202826.65,35071,15.44,74154.5,7.85,-13.73,-20.63,0,*76
1491202827.91,35072,15.44,74154.0,7.87,-13.61,-20.43,0,*76
1491202829.12,35073,15.44,74154.0,7.89,-13.69,-20.59,0,*7A
1491202830.36,35074,15.44,74154.8,7.87,-14.23,-21.43,0,*70
1491202831.59,35075,15.44,74152.8,7.87,-14.37,-21.43,0,*74
1491202832.85,35076,15.44,74148.5,7.93,-13.97,-20.99,0,*79
1491202834.11,35077,15.44,74150.8,7.89,-13.61,-20.53,0,*7C
1491202835.32,35078,15.44,74152.3,7.89,-13.15,-20.25,0,*71
1491202836.55,35079,15.44,74152.0,7.95,-12.97,-20.05,0,*74
1491202837.78,35080,15.44,74154.0,7.99,-13.07,-20.05,0,*76
1491202839.03,35081,15.44,74154.8,7.97,-13.33,-20.35,0,*7D
1491202840.25,35082,15.44,74154.8,8.01,-12.89,-19.85,0,*7F
1491202841.53,35083,15.44,74154.3,8.03,-12.79,-19.81,0,*77
1491202842.74,35084,15.44,74152.3,8.01,-13.43,-20.43,0,*7E
1491202843.97,35085,15.44,74152.3,8.03,-13.65,-20.73,0,*7A
1491202845.22,35086,15.44,74154.8,8.05,-13.37,-20.53,0,*7A
1491202846.48,35087,15.44,74156.3,8.03,-13.37,-20.43,0,*7C
1491202847.73,35088,15.44,74154.5,8.07,-13.33,-20.39,0,*7E
1491202848.99,35089,15.44,74154.0,8.07,-13.23,-20.49,0,*79
1491202850.24,35090,15.44,74152.8,8.07,-13.73,-20.99,0,*79
1491202851.47,35091,15.44,74152.8,8.09,-14.33,-21.67,0,*75
1491202852.69,35092,15.44,74154.3,8.07,-14.11,-21.43,0,*7E
1491202853.94,35093,15.44,74152.8,8.07,-13.73,-20.99,0,*7A
1491202855.14,35094,15.44,74154.8,8.09,-13.43,-20.63,0,*75
1491202856.38,35095,15.44,74154.0,8.09,-13.61,-20.93,0,*7B
1491202857.64,35096,15.44,74154.8,8.09,-13.83,-21.23,0,*7E
1491202858.87,35097,15.44,74156.8,8.09,-14.29,-21.67,0,*78
1491202860.1,35098,15.44,74156.8,8.11,-13.43,-20.63,0,*70
1491202861.3,35099,15.44,74154.8,8.09,-13.15,-20.29,0,*75
1491202862.51,35100,15.44,74152.3,8.09,-13.69,-20.89,0,*75
1491202863.75,35101,15.44,74154.0,8.11,-13.47,-20.79,0,*7E
1491202864.98,35102,15.44,74154.8,8.11,-12.93,-20.29,0,*70
1491202866.21,35103,15.44,74156.8,8.15,-12.53,-19.75,0,*7A
1491202867.43,35104,15.44,74154.0,8.15,-12.39,-19.61,0,*74
1491202868.65,35105,15.44,74154.3,8.19,-12.71,-20.05,0,*7D
1491202869.87,35106,15.44,74154.5,8.19,-13.51,-20.93,0,*72
1491202871.09,35107,15.44,74154.3,8.19,-13.33,-20.69,0,*72
1491202872.32,35108,15.44,74152.0,8.19,-12.71,-19.99,0,*7F
1491202873.53,35109,15.44,74154.0,8.19,-13.11,-20.39,0,*79
1491202874.78,35110,15.44,74156.3,8.19,-12.71,-20.15,0,*78
1491202876.06,35111,15.44,74156.3,8.21,-12.35,-19.57,0,*7E
1491202877.28,35112,15.44,74152.0,8.23,-12.65,-20.09,0,*7B
1491202878.5,35113,15.44,74158.0,8.23,-11.59,-18.79,0,*7A
1491202879.77,35114,15.44,74152.3,8.25,-11.89,-19.23,0,*78
1491202881.02,35115,15.44,74154.0,8.27,-12.53,-19.85,0,*73
1491202882.24,35116,15.44,74152.5,8.27,-12.47,-19.85,0,*75
1491202883.49,35117,15.44,74152.0,8.27,-12.11,-19.57,0,*78
1491202884.77,35118,15.44,74154.3,8.29,-11.93,-19.31,0,*70
1491202886.03,35119,15.44,74154.8,8.33,-12.21,-19.65,0,*71
1491202887.25,35120,15.44,74156.3,8.31,-11.93,-19.37,0,*74
1491202888.48,35121,15.44,74158.3,8.33,-12.03,-19.37,0,*7D
1491202889.69,35122,15.44,74152.8,8.39,-11.77,-18.99,0,*71
1491202890.93,35123,15.44,74154.8,8.39,-11.51,-18.93,0,*7E
1491202892.16,35124,15.44,74152.5,8.39,-11.29,-18.65,0,*7F
1491202893.4,35125,15.44,74152.3,8.41,-11.15,-18.55,0,*7D
1491202894.65,35126,15.44,74154.8,8.41,-11.51,-18.83,0,*75
1491202895.87,35127,15.44,74154.5,8.45,-11.59,-19.07,0,*75
1491202897.1,35128,15.44,74154.8,8.49,-11.93,-19.47,0,*74
1491202898.31,35129,15.44,74152.8,8.49,-12.29,-19.75,0,*76
1491202899.55,35130,15.44,74158.5,8.49,-11.81,-19.41,0,*78
1491202900.78,35131,15.44,74154.0,8.49,-11.97,-19.47,0,*78
1491202902.03,35132,15.44,74152.3,8.51,-12.35,-19.75,0,*78
1491202903.26,35133,15.44,74156.3,8.49,-11.93,-19.47,0,*7E
1491202904.49,35134,15.44,74154.0,8.53,-12.15,-19.71,0,*7A
1491202905.71,35135,15.44,74152.0,8.51,-12.39,-19.91,0,*79
1491202906.92,35136,15.44,74154.5,8.49,-12.39,-19.95,0,*77
1491202908.15,35137,15.44,74154.5,8.51,-12.47,-20.05,0,*75
1491202909.35,35138,15.44,74154.0,8.49,-12.25,-20.05,0,*77
1491202910.6,35139,15.44,74152.5,8.51,-12.15,-19.75,0,*71
1491202911.87,35140,15.44,74154.5,8.51,-12.61,-20.15,0,*70
1491202913.12,35141,15.44,74152.3,8.51,-12.75,-20.29,0,*7B
1491202914.35,35142,15.44,74152.0,8.49,-12.65,-20.25,0,*7C
1491202915.61,35143,15.44,74154.8,8.49,-12.79,-20.35,0,*71
1491202916.81,35144,15.44,74154.0,8.49,-12.21,-19.71,0,*71
1491202918.04,35145,15.44,74156.0,8.49,-11.67,-19.03,0,*74
1491202919.26,35146,15.44,74152.8,8.49,-11.59,-19.03,0,*7A
1491202920.49,35147,15.44,74154.8,8.49,-11.67,-19.13,0,*77
1491202921.71,35148,15.44,74152.5,8.51,-11.41,-18.99,0,*76
1491202922.96,35149,15.44,74158.5,8.53,-11.67,-19.23,0,*71
1491202924.21,35150,15.44,74158.3,8.55,-11.33,-18.73,0,*7A
1491202925.45,35151,15.44,74154.0,8.53,-10.71,-18.07,0,*79
1491202926.68,35152,15.44,74152.8,8.57,-11.33,-18.73,0,*7A
1491202927.87,35153,15.44,74152.8,8.57,-10.89,-18.17,0,*79
1491202929.1,35154,15.44,74156.0,8.57,-10.75,-18.11,0,*7B
1491202930.34,35155,15.44,74158.0,8.59,-10.15,-17.35,0,*7B
1491202931.57,35156,15.44,74152.8,8.65,-10.31,-17.55,0,*77
1491202932.77,35157,15.44,74158.5,8.65,-10.45,-17.87,0,*7A
1491202934.03,35158,15.44,74154.3,8.67,-10.19,-17.41,0,*74
1491202935.25,35159,15.44,74154.5,8.69,-10.05,-17.21,0,*70
1491202936.47,35160,15.44,74158.3,8.69,-10.19,-17.35,0,*72
1491202937.66,35161,15.44,74158.3,8.73,-9.75,-16.89,0,*4C
1491202938.85,35162,15.44,74156.3,8.73,-9.75,-16.89,0,*4F
1491202940.07,35163,15.44,74156.8,8.77,-9.79,-16.93,0,*4D
1491202941.31,35164,15.44,74156.5,8.77,-9.97,-17.11,0,*41
1491202942.53,35165,15.44,74158.8,8.81,-9.79,-16.93,0,*42
1491202943.78,35166,15.44,74152.5,8.81,-9.41,-16.59,0,*4C
1491202945.03,35167,15.44,74154.5,8.85,-9.23,-16.27,0,*44
1491202946.22,35168,15.44,74156.3,8.87,-9.27,-16.37,0,*4C
1491202947.46,35169,15.44,74158.0,8.89,-9.67,-16.65,0,*40
1491202948.65,35170,15.44,74156.5,8.91,-9.75,-16.89,0,*40
1491202949.9,35171,15.44,74158.8,8.93,-9.75,-16.65,0,*41
1491202951.16,35172,15.44,74154.3,8.93,-9.61,-16.65,0,*47
1491202952.38,35173,15.44,74156.5,8.95,-10.19,-17.11,0,*75
1491202953.64,35174,15.44,74158.8,8.97,-10.01,-17.07,0,*7E
1491202954.81,35175,15.44,74158.3,8.99,-9.89,-16.93,0,*45
1491202956.04,35176,15.44,74158.3,8.99,-10.15,-17.11,0,*70
1491202957.23,35177,15.44,74160.3,8.99,-10.23,-17.31,0,*76
1491202958.48,35178,15.44,74158.5,9.01,-10.23,-17.25,0,*7C
1491202959.72,35179,15.44,74156.0,9.01,-10.23,-17.25,0,*7D
1491202960.97,35180,15.44,74156.5,9.05,-10.31,-17.21,0,*78
1491202962.19,35181,15.44,74158.0,9.03,-10.63,-17.69,0,*74
1491202963.47,35182,15.44,74160.0,9.01,-10.75,-17.79,0,*73
1491202964.7,35183,15.44,74158.5,9.01,-10.45,-17.35,0,*79
1491202965.92,35184,15.44,74158.3,9.03,-10.57,-17.63,0,*7C
1491202967.13,35185,15.44,74158.0,9.03,-10.45,-17.55,0,*7B
1491202968.36,35186,15.44,74158.8,9.03,-10.31,-17.07,0,*7C
1491202969.59,35187,15.44,74156.3,9.05,-10.97,-17.87,0,*7F
1491202970.84,35188,15.44,74158.3,9.03,-10.71,-17.63,0,*74
1491202972.06,35189,15.44,74156.5,9.03,-11.07,-18.07,0,*78
1491202973.31,35190,15.44,74154.0,9.03,-11.59,-18.55,0,*7C
1491202974.56,35191,15.44,74160.3,9.01,-11.15,-17.97,0,*76
1491202975.82,35192,15.44,74158.5,9.01,-11.07,-18.07,0,*70
1491202977.07,35193,15.44,74152.8,9.01,-11.33,-18.11,0,*71
1491202978.29,35194,15.44,74156.8,8.99,-11.77,-18.49,0,*7B
1491202979.52,35195,15.44,74156.5,8.99,-11.07,-17.83,0,*74
1491202980.77,35196,15.44,74156.0,8.99,-10.63,-17.41,0,*7A
1491202982.04,35197,15.44,74154.5,8.97,-10.79,-17.41,0,*7E
1491202983.27,35198,15.44,74156.5,8.99,-10.63,-16.97,0,*7E
1491202984.47,35199,15.44,74156.5,8.99,-10.35,-16.83,0,*79
1491202985.69,35200,15.44,74156.3,8.99,-10.53,-17.07,0,*77
1491202986.92,35201,15.44,74156.8,8.99,-11.33,-17.87,0,*79
1491202988.12,35202,15.44,74154.8,8.99,-11.45,-17.87,0,*7B
1491202989.39,35203,15.44,74156.5,8.97,-11.51,-18.01,0,*70
1491202990.63,35204,15.44,74158.3,8.97,-12.35,-19.07,0,*71
1491202991.83,35205,15.44,74156.5,8.95,-12.47,-19.13,0,*72
1491202993.1,35206,15.44,74156.0,8.93,-12.15,-18.59,0,*7F
1491202994.34,35207,15.44,74156.3,8.93,-11.19,-17.55,0,*72
1491202995.57,35208,15.44,74156.8,8.93,-10.57,-16.75,0,*75
1491202996.79,35209,15.44,74156.5,8.91,-10.93,-17.17,0,*7B
1491202998.02,35210,15.44,74154.5,8.91,-10.93,-17.03,0,*76
1491202999.24,35211,15.44,74154.8,8.91,-10.75,-16.89,0,*7C
1491203000.44,35212,15.44,74154.5,8.91,-10.93,-16.93,0,*7C
1491203001.63,35213,15.44,74158.3,8.91,-10.89,-16.89,0,*7D
1491203002.83,35214,15.44,74156.8,8.91,-10.93,-16.93,0,*7A
1491203004.02,35215,15.44,74156.0,8.91,-10.93,-16.93,0,*7B
1491203005.22,35216,15.44,74156.5,8.91,-11.15,-16.97,0,*73
1491203006.44,35217,15.44,74152.3,8.89,-11.11,-16.93,0,*7B
1491203007.65,35218,15.44,74156.0,8.89,-11.19,-16.93,0,*7C
1491203008.9,35219,15.44,74158.5,8.89,-11.07,-16.83,0,*73
1491203010.13,35220,15.44,74152.8,8.89,-11.11,-16.83,0,*7E
1491203011.41,35221,15.44,74158.0,8.89,-11.37,-17.07,0,*76
1491203012.64,35222,15.44,74156.0,8.85,-11.15,-16.75,0,*7D
1491203013.83,35223,15.44,74152.8,8.87,-10.89,-16.41,0,*7D
1491203015.03,35224,15.44,74156.5,8.87,-11.23,-16.79,0,*70
1491203016.24,35225,15.44,74156.5,8.87,-11.15,-16.59,0,*76
1491203017.46,35226,15.44,74158.5,8.85,-11.23,-16.55,0,*7E
1491203018.69,35227,15.44,74158.8,8.85,-10.97,-16.37,0,*75
1491203019.97,35228,15.44,74156.0,8.85,-10.79,-16.09,0,*77
1491203021.22,35229,15.44,74156.0,8.85,-10.01,-15.21,0,*70
1491203022.43,35230,15.44,74156.5,8.87,-9.57,-14.65,0,*40
1491203023.67,35231,15.44,74156.5,8.87,-9.83,-15.01,0,*4B
1491203024.89,35232,15.44,74158.0,8.87,-10.23,-15.21,0,*78
1491203026.09,35233,15.44,74158.3,8.87,-10.15,-15.15,0,*7B
1491203027.33,35234,15.44,74158.3,8.89,-9.67,-14.47,0,*49
1491203028.58,35235,15.44,74156.0,8.89,-10.01,-14.93,0,*79
1491203029.79,35236,15.44,74156.0,8.91,-9.93,-14.75,0,*48
1491203031.0,35237,15.44,74154.8,8.91,-9.89,-14.51,0,*44
1491203032.21,35238,15.44,74156.3,8.95,-9.61,-14.37,0,*49
1491203033.45,35239,15.44,74158.0,8.93,-9.89,-14.47,0,*4F
1491203034.7,35240,15.44,74156.3,8.93,-10.35,-14.97,0,*73
1491203035.96,35241,15.44,74156.8,8.93,-10.63,-15.25,0,*79
1491203037.22,35242,15.44,74158.8,8.93,-10.35,-14.83,0,*74
1491203038.42,35243,15.44,74158.0,8.91,-10.57,-14.89,0,*79
1491203039.67,35244,15.44,74156.3,8.93,-10.71,-15.11,0,*78
1491203040.92,35245,15.44,74156.5,8.93,-10.45,-14.83,0,*74
1491203042.2,35246,15.44,74156.0,8.93,-10.63,-14.83,0,*73
1491203043.42,35247,15.44,74160.0,8.93,-10.57,-14.69,0,*71
1491203044.66,35248,15.44,74160.0,8.93,-10.45,-14.55,0,*72
1491203045.88,35249,15.44,74158.5,8.95,-10.53,-14.55,0,*72
1491203047.1,35250,15.44,74156.3,8.93,-10.19,-14.37,0,*76
1491203048.32,35251,15.44,74162.3,8.93,-10.49,-14.61,0,*71
1491203049.53,35252,15.44,74156.0,8.95,-9.83,-13.69,0,*45
1491203050.73,35253,15.44,74158.5,8.95,-9.61,-13.47,0,*44
1491203051.96,35254,15.44,74156.5,8.95,-9.57,-13.37,0,*41
1491203053.19,35255,15.44,74158.5,8.95,-9.57,-13.33,0,*44
1491203054.44,35256,15.44,74158.3,8.97,-9.19,-12.79,0,*40
1491203055.64,35257,15.44,74156.5,8.99,-9.19,-12.89,0,*40
1491203056.84,35258,15.44,74156.3,8.99,-9.57,-13.07,0,*42
1491203058.08,35259,15.44,74158.0,9.01,-9.97,-13.61,0,*4F
1491203059.31,35260,15.44,74154.8,9.01,-9.83,-13.43,0,*40
1491203060.54,35261,15.44,74156.0,9.01,-9.79,-13.23,0,*42
1491203061.77,35262,15.44,74158.3,9.03,-9.83,-13.29,0,*4C
1491203062.95,35263,15.44,74156.0,9.03,-10.09,-13.55,0,*7C
1491203064.14,35264,15.44,74162.3,9.03,-10.45,-13.73,0,*77
1491203065.4,35265,15.44,74156.5,9.01,-10.75,-14.15,0,*70
1491203066.62,35266,15.44,74154.3,9.03,-11.19,-14.47,0,*7D
1491203067.87,35267,15.44,74154.3,9.03,-11.97,-15.43,0,*7F
1491203069.11,35268,15.44,74154.0,8.99,-13.01,-16.51,0,*7F
1491203070.36,35269,15.44,74158.3,8.97,-12.65,-15.95,0,*78
1491203071.61,35270,15.44,74156.3,8.95,-14.05,-17.45,0,*7D
1491203072.84,35271,15.44,74158.0,8.91,-14.43,-17.69,0,*74
1491203074.06,35272,15.44,74156.0,8.89,-14.29,-17.73,0,*79
1491203075.31,35273,15.44,74158.5,8.81,-14.37,-17.63,0,*7E
1491203076.52,35274,15.44,74156.0,8.79,-14.23,-17.31,0,*7C
1491203077.77,35275,15.44,74158.8,8.75,-13.79,-16.79,0,*74
1491203079.03,35276,15.44,74158.3,8.71,-13.51,-16.31,0,*75
1491203080.26,35277,15.44,74162.0,8.69,-12.71,-15.71,0,*79
1491203081.54,35278,15.44,74156.0,8.71,-12.53,-15.43,0,*7E
1491203082.8,35279,15.5,74160.3,8.69,-12.75,-15.57,0,*77
1491203084.03,35280,15.44,74158.0,8.65,-13.19,-15.85,0,*79
1491203085.23,35281,15.44,74156.0,8.65,-13.47,-16.37,0,*79
1491203086.49,35282,15.44,74156.5,8.63,-13.19,-15.85,0,*7D
1491203087.75,35283,15.44,74158.8,8.63,-12.65,-15.25,0,*7C
1491203089.01,35284,15.44,74158.3,8.59,-12.57,-15.15,0,*70
1491203090.29,35285,15.44,74156.8,8.59,-12.79,-15.39,0,*73
1491203091.54,35286,15.44,74154.8,8.57,-12.83,-15.35,0,*77
1491203092.81,35287,15.44,74158.3,8.55,-12.83,-15.35,0,*74
1491203094.04,35288,15.44,74156.3,8.53,-12.89,-15.35,0,*77
1491203095.26,35289,15.44,74158.5,8.53,-12.93,-15.25,0,*7C
1491203096.49,35290,15.44,74154.3,8.53,-12.53,-14.89,0,*7F
1491203097.75,35291,15.44,74156.5,8.53,-12.65,-14.93,0,*70
1491203099.02,35292,15.44,74156.5,8.51,-12.75,-14.93,0,*70
1491203100.31,35293,15.44,74156.0,8.51,-13.01,-15.39,0,*72
1491203101.56,35294,15.44,74158.3,8.47,-13.73,-15.89,0,*7C
1491203102.8,35295,15.44,74162.0,8.45,-13.83,-15.99,0,*71
1491203104.03,35296,15.44,74158.3,8.45,-13.61,-15.75,0,*7C
1491203105.29,35297,15.44,74158.8,8.41,-13.83,-15.99,0,*77
1491203106.52,35298,15.44,74156.0,8.39,-14.19,-16.27,0,*75
1491203107.77,35299,15.44,74158.8,8.33,-14.19,-16.27,0,*7E
1491203109.02,35300,15.44,74158.8,8.33,-13.61,-15.67,0,*70
1491203110.24,35301,15.44,74158.3,8.31,-13.07,-15.01,0,*73
1491203111.47,35302,15.44,74156.5,8.29,-13.47,-15.29,0,*77
1491203112.74,35303,15.44,74158.5,8.29,-12.83,-14.79,0,*7B
1491203113.94,35304,15.44,74154.3,8.31,-12.89,-14.65,0,*72
1491203115.19,35305,15.44,74158.8,8.29,-13.23,-15.21,0,*7A
1491203116.39,35306,15.44,74160.5,8.27,-13.69,-15.67,0,*7B
1491203117.62,35307,15.44,74160.8,8.25,-13.43,-15.25,0,*76
1491203118.81,35308,15.44,74156.3,8.27,-13.07,-14.69,0,*72
1491203120.06,35309,15.44,74160.8,8.25,-12.89,-14.55,0,*79
1491203121.3,35310,15.44,74156.3,8.25,-13.01,-14.69,0,*7F
1491203122.53,35311,15.44,74158.0,8.21,-13.19,-14.89,0,*7D
1491203123.76,35312,15.44,74156.8,8.23,-13.29,-14.89,0,*7F
1491203125.03,35313,15.44,74158.8,8.21,-13.29,-14.93,0,*77
1491203126.28,35314,15.44,74156.5,8.21,-13.43,-15.01,0,*76
1491203127.52,35315,15.44,74158.0,8.21,-13.47,-15.21,0,*71
1491203128.78,35316,15.44,74156.3,8.21,-12.93,-14.47,0,*7B
1491203130.01,35317,15.44,74158.3,8.19,-13.61,-15.11,0,*7F
1491203131.28,35318,15.44,74158.8,8.17,-13.79,-15.35,0,*71
1491203132.52,35319,15.44,74160.3,8.17,-13.65,-15.25,0,*7C
1491203133.79,35320,15.44,74156.5,8.17,-13.33,-14.79,0,*7D
1491203135.01,35321,15.44,74160.0,8.15,-13.11,-14.51,0,*74
1491203136.26,35322,15.44,74158.8,8.15,-13.01,-14.43,0,*75
1491203137.5,35323,15.44,74158.0,8.11,-13.43,-14.75,0,*73
1491203138.73,35324,15.44,74158.8,8.11,-13.69,-15.07,0,*78
1491203139.96,35325,15.44,74158.3,8.11,-13.69,-15.07,0,*79
1491203141.23,35326,15.44,74160.0,8.11,-13.61,-15.01,0,*74
1491203142.49,35327,15.44,74158.0,8.11,-13.79,-15.29,0,*76
1491203143.73,35328,15.44,74158.0,8.07,-13.93,-15.35,0,*77
1491203144.99,35329,15.44,74156.0,8.07,-14.19,-15.57,0,*77
1491203146.26,35330,15.44,74154.8,8.07,-13.83,-15.35,0,*7F
1491203147.53,35331,15.44,74156.5,8.05,-13.97,-15.39,0,*75
1491203148.75,35332,15.44,74156.8,8.03,-14.29,-15.63,0,*7D
1491203149.99,35333,15.44,74156.8,8.03,-13.69,-15.15,0,*7E
1491203151.21,35334,15.44,74158.3,8.03,-13.69,-15.11,0,*7D
1491203152.42,35335,15.44,74158.3,8.01,-13.69,-15.07,0,*79
1491203153.67,35336,15.44,74156.3,7.99,-13.51,-14.93,0,*73
1491203154.95,35337,15.44,74158.0,7.99,-13.37,-14.79,0,*76
1491203156.2,35338,15.44,74152.3,7.99,-13.33,-14.65,0,*70
1491203157.46,35339,15.44,74158.8,7.99,-13.37,-14.65,0,*75
1491203158.71,35340,15.44,74156.3,7.99,-13.51,-14.79,0,*76
1491203159.94,35341,15.44,74162.0,7.97,-13.47,-14.79,0,*7E
1491203161.14,35342,15.44,74158.3,7.97,-13.07,-14.37,0,*73
1491203162.37,35343,15.44,74158.3,7.97,-13.11,-14.51,0,*75
1491203163.61,35344,15.44,74156.8,7.97,-13.19,-14.51,0,*7A
1491203164.84,35345,15.44,74158.5,7.97,-13.51,-14.79,0,*7D
1491203166.07,35346,15.44,74158.0,7.97,-13.47,-14.97,0,*79
1491203167.33,35347,15.44,74156.3,7.95,-13.43,-14.83,0,*7B
1491203168.56,35348,15.44,74158.0,7.97,-13.23,-14.75,0,*79
1491203169.79,35349,15.44,74158.8,7.95,-13.65,-15.15,0,*7F
1491203171.04,35350,15.44,74158.0,7.93,-13.29,-14.79,0,*72
1491203172.27,35351,15.44,74158.3,7.93,-12.97,-14.43,0,*7E
1491203173.49,35352,15.44,74158.3,7.93,-13.15,-14.55,0,*71
1491203174.71,35353,15.44,74156.8,7.89,-13.69,-15.29,0,*7A
1491203175.92,35354,15.44,74156.5,7.89,-13.69,-15.15,0,*72
1491203177.15,35355,15.44,74156.3,7.89,-13.07,-14.55,0,*7E
1491203178.38,35356,15.44,74154.3,7.93,-12.97,-14.51,0,*7A
1491203179.61,35357,15.44,74154.0,7.89,-12.75,-14.33,0,*78
1491203180.84,35358,15.44,74156.0,7.89,-12.97,-14.55,0,*7B
1491203182.05,35359,15.44,74152.0,7.89,-12.97,-14.61,0,*7D
1491203183.27,35360,15.44,74158.3,7.89,-13.07,-14.75,0,*7A
1491203184.53,35361,15.44,74158.8,7.87,-13.47,-15.21,0,*71
1491203185.76,35362,15.44,74158.8,7.85,-12.93,-14.51,0,*7E
1491203187.02,35363,15.44,74154.3,7.85,-12.79,-14.47,0,*7C
1491203188.23,35364,15.44,74156.0,7.85,-13.11,-14.89,0,*76
1491203189.46,35365,15.44,74156.3,7.87,-13.11,-14.89,0,*75
1491203190.67,35366,15.44,74160.5,7.85,-13.07,-14.89,0,*73
1491203191.9,35367,15.44,74158.0,7.85,-13.11,-14.93,0,*7E
1491203193.14,35368,15.44,74152.3,7.85,-13.37,-15.25,0,*79
1491203194.37,35369,15.44,74156.5,7.85,-13.11,-14.93,0,*70
1491203195.63,35370,15.44,74158.0,7.81,-13.37,-15.39,0,*79
1491203196.89,35371,15.44,74156.8,7.83,-13.29,-15.25,0,*78
1491203198.14,35372,15.44,74158.3,7.83,-13.55,-15.57,0,*75
1491203199.37,35373,15.44,74158.8,7.81,-13.55,-15.57,0,*76
1491203200.58,35374,15.44,74158.3,7.79,-13.73,-15.75,0,*72
1491203201.85,35375,15.44,74156.8,7.77,-13.79,-15.89,0,*74
1491203203.11,35376,15.44,74158.8,7.77,-13.23,-15.35,0,*7F
1491203204.33,35377,15.44,74154.3,7.79,-13.15,-15.21,0,*70
1491203205.58,35378,15.44,74156.5,7.77,-13.61,-15.67,0,*70
1491203206.8,35379,15.44,74156.3,7.77,-13.47,-15.67,0,*75
1491203208.01,35380,15.44,74160.5,7.75,-12.97,-15.25,0,*7B
1491203209.26,35381,15.44,74156.5,7.75,-13.01,-15.21,0,*70
1491203210.53,35382,15.44,74156.8,7.73,-12.83,-14.97,0,*72
1491203211.76,35383,15.44,74158.0,7.73,-13.07,-15.25,0,*76
1491203212.98,35384,15.44,74158.3,7.73,-13.11,-15.25,0,*76
1491203214.23,35385,15.44,74158.0,7.73,-13.29,-15.71,0,*7D
1491203215.43,35386,15.44,74154.8,7.75,-13.23,-15.67,0,*75
1491203216.63,35387,15.44,74158.3,7.71,-13.55,-15.95,0,*7C
1491203217.86,35388,15.44,74156.8,7.67,-13.33,-15.75,0,*7A
1491203219.09,35389,15.44,74156.8,7.71,-13.29,-15.71,0,*73
1491203220.28,35390,15.44,74156.8,7.67,-13.15,-15.63,0,*70
1491203221.5,35391,15.44,74154.3,7.67,-13.11,-15.57,0,*72
1491203222.76,35392,15.44,74158.8,7.65,-13.01,-15.49,0,*7D
1491203223.99,35393,15.44,74156.3,7.63,-13.29,-15.75,0,*7F
1491203225.25,35394,15.44,74156.5,7.65,-13.01,-15.53,0,*70
1491203226.5,35395,15.44,74156.8,7.65,-13.51,-16.23,0,*70
1491203227.76,35396,15.44,74158.8,7.63,-13.61,-16.13,0,*75
1491203228.98,35397,15.44,74158.0,7.63,-13.29,-16.03,0,*79
1491203230.24,35398,15.44,74158.3,7.61,-13.43,-16.17,0,*7D
1491203231.46,35399,15.44,74158.0,7.61,-12.97,-15.67,0,*70
1491203232.71,35400,15.44,74156.5,7.61,-12.83,-15.67,0,*72
1491203233.92,35401,15.44,74158.3,7.59,-12.97,-15.71,0,*7A
1491203235.15,35402,15.44,74156.8,7.61,-12.93,-15.71,0,*76
1491203236.4,35403,15.44,74160.0,7.61,-13.07,-15.85,0,*70
1491203237.63,35404,15.44,74156.3,7.59,-13.23,-16.13,0,*76
1491203238.83,35405,15.44,74158.0,7.59,-13.93,-16.83,0,*75
1491203240.06,35406,15.44,74162.0,7.55,-13.73,-16.65,0,*7C
1491203241.31,35407,15.44,74160.3,7.55,-13.33,-16.27,0,*7F
1491203242.55,35408,15.44,74156.5,7.55,-13.15,-16.17,0,*77
1491203243.75,35409,15.44,74156.0,7.55,-12.93,-16.03,0,*7C
1491203244.96,35410,15.44,74158.0,7.55,-12.93,-16.03,0,*74
1491203246.22,35411,15.44,74158.3,7.53,-12.79,-15.95,0,*7B
1491203247.45,35412,15.44,74156.5,7.53,-12.93,-16.03,0,*70
1491203248.74,35413,15.44,74158.0,7.53,-12.75,-15.89,0,*78
1491203249.93,35414,15.44,74158.0,7.51,-13.23,-16.45,0,*7C
1491203251.19,35415,15.44,74158.3,7.51,-13.83,-17.11,0,*77
1491203252.47,35416,15.44,74156.0,7.47,-13.87,-17.21,0,*74
1491203253.73,35417,15.44,74156.0,7.47,-14.01,-17.35,0,*79
1491203254.96,35418,15.44,74160.3,7.49,-14.11,-17.31,0,*7D
1491203256.23,35419,15.44,74158.5,7.47,-13.61,-17.03,0,*73
1491203257.51,35420,15.44,74158.8,7.43,-13.33,-16.65,0,*7B
1491203258.73,35421,15.44,74156.0,7.43,-13.43,-16.79,0,*70
1491203259.93,35422,15.44,74158.3,7.41,-13.93,-17.35,0,*75
1491203261.12,35423,15.44,74156.0,7.41,-13.55,-16.93,0,*73
1491203262.37,35424,15.44,74158.5,7.41,-13.29,-16.65,0,*76
1491203263.6,35425,15.44,74158.0,7.39,-13.07,-16.41,0,*72
1491203264.87,35426,15.44,74160.8,7.39,-12.79,-16.23,0,*7D
1491203266.1,35427,15.44,74160.0,7.39,-12.93,-16.37,0,*7D
1491203267.32,35428,15.44,74162.0,7.39,-12.97,-16.45,0,*73
1491203268.56,35429,15.44,74156.3,7.37,-13.29,-16.75,0,*7B
1491203269.79,35430,15.44,74158.0,7.39,-13.23,-16.83,0,*7E
1491203271.02,35431,15.44,74158.0,7.39,-12.97,-16.55,0,*7A
1491203272.25,35432,15.44,74156.0,7.37,-13.11,-16.65,0,*7B
1491203273.49,35433,15.44,74156.8,7.39,-12.83,-16.45,0,*7C
1491203274.72,35434,15.44,74156.3,7.39,-13.11,-16.83,0,*7B
1491203275.98,35435,15.44,74154.5,7.37,-13.29,-17.07,0,*72
1491203277.26,35436,15.44,74156.3,7.39,-13.37,-17.17,0,*71
1491203278.49,35437,15.44,74158.0,7.33,-13.55,-17.41,0,*7D
1491203279.74,35438,15.44,74158.5,7.35,-13.23,-17.03,0,*73
1491203280.97,35439,15.44,74158.8,7.33,-13.29,-16.97,0,*72
1491203282.18,35440,15.44,74158.0,7.33,-13.47,-17.35,0,*7D
1491203283.42,35441,15.44,74160.0,7.35,-13.51,-17.35,0,*7D
1491203284.67,35442,15.44,74158.5,7.33,-13.61,-17.55,0,*7D
1491203285.92,35443,15.44,74158.3,7.33,-13.79,-17.55,0,*75
1491203287.16,35444,15.44,74156.3,7.29,-13.51,-17.41,0,*76
1491203288.39,35445,15.44,74158.5,7.29,-13.65,-17.59,0,*79
1491203289.62,35446,15.44,74158.8,7.29,-13.51,-17.55,0,*71
1491203290.86,35447,15.44,74158.8,7.29,-13.83,-17.87,0,*70
1491203292.1,35448,15.44,74156.0,7.29,-14.23,-18.31,0,*70
1491203293.3,35449,15.44,74156.5,7.25,-14.23,-18.21,0,*7C
1491203294.54,35450,15.44,74156.3,7.25,-14.15,-18.35,0,*74
1491203295.76,35451,15.44,74158.0,7.25,-14.43,-18.41,0,*75
1491203297.01,35452,15.44,74156.5,7.21,-14.43,-18.59,0,*7B
1491203298.23,35453,15.44,74156.8,7.19,-13.93,-18.07,0,*70
1491203299.49,35454,15.44,74154.8,7.19,-14.11,-18.35,0,*7B
1491203300.74,35455,15.44,74158.3,7.19,-14.05,-18.17,0,*7F
1491203301.97,35456,15.44,74158.8,7.17,-13.87,-18.07,0,*7E